Zurück zum Katalog

STARLINK-30773

AktivKommunikationVLEO
NORAD 58161·PAYLOAD·🇺🇸 United States

Gestartet Oct 29, 2023 von Vandenberg Space Force Base

Loading…

Nächste Überflüge (nächste 24 Stunden)

TLE

AktuellSource: CelesTrak SupGP

Epoche: Sep 15, 2026, 03:18 UTC

1 58161C 23166M   26258.13798611 -.00026394  00000+0 -78002-3 0  2581
2 58161  53.1599  58.5825 0001069  89.2887 120.3957 15.34395450    13

Verfolge STARLINK-30773 in Echtzeit mit AllMySat

Download on the App Store